This is the latest recevied weather packets stored in our database for station/object KB0Y. If no packets are shown the sender has not sent any weather packets the latest 10 day(s).
| Time | Temp. | Humidity | Pressure | Rain* | Wind** | Luminosity | Snow |
|---|---|---|---|---|---|---|---|
| 1777662911 | 26.67° C | 65% | 1015.6 hPa | 0 mm | - | 197 W/m² | - |
| 1777662608 | 26.67° C | 64% | 1015.6 hPa | 0 mm | - | 275 W/m² | - |
| 1777662303 | 26.67° C | 63% | 1015.6 hPa | 0 mm | - | 368 W/m² | - |
| 1777661999 | 26.67° C | 62% | 1015.6 hPa | 0 mm | - | 342 W/m² | - |
| 1777661695 | 26.67° C | 63% | 1015.6 hPa | 0 mm | - | 312 W/m² | - |
| 1777661392 | 26.11° C | 62% | 1015.2 hPa | 0 mm | - | 395 W/m² | - |
| 1777661088 | 26.11° C | 63% | 1015.6 hPa | 0 mm | - | 434 W/m² | - |
| 1777660783 | 26.11° C | 64% | 1015.6 hPa | 0 mm | - | 493 W/m² | - |
| 1777660480 | 25.56° C | 64% | 1015.6 hPa | 0 mm | - | 511 W/m² | - |
| 1777660176 | 25.56° C | 62% | 1015.6 hPa | 0 mm | - | 560 W/m² | - |
| 1777659873 | 25.56° C | 64% | 1015.6 hPa | 0 mm | - | 536 W/m² | - |
| 1777659570 | 25.56° C | 64% | 1015.6 hPa | 0 mm | - | 523 W/m² | - |
| 1777659268 | 25° C | 64% | 1015.9 hPa | 0 mm | - | 520 W/m² | - |
| 1777658964 | 25° C | 64% | 1016.2 hPa | 0 mm | - | 506 W/m² | - |
| 1777658661 | 25° C | 64% | 1016.2 hPa | 0 mm | - | 511 W/m² | - |
| 1777658358 | 25° C | 65% | 1016.2 hPa | 0 mm | - | 495 W/m² | - |
| 1777658055 | 25° C | 66% | 1016.6 hPa | 0 mm | - | 309 W/m² | - |
| 1777657751 | 25° C | 68% | 1016.9 hPa | 0 mm | - | 182 W/m² | - |
| 1777657449 | 25° C | 68% | 1016.9 hPa | 0 mm | - | 149 W/m² | - |
| 1777657146 | 25° C | 66% | 1016.6 hPa | 0 mm | - | 199 W/m² | - |
| 1777656844 | 24.44° C | 66% | 1016.6 hPa | 0 mm | - | 308 W/m² | - |
| 1777656539 | 23.89° C | 67% | 1016.6 hPa | 0 mm | - | 310 W/m² | - |
| 1777656234 | 23.89° C | 66% | 1016.6 hPa | 0 mm | - | 229 W/m² | - |
| 1777655930 | 23.33° C | 69% | 1016.6 hPa | 0 mm | - | 618 W/m² | - |
| 1777655627 | 23.33° C | 69% | 1016.9 hPa | 0 mm | - | 352 W/m² | - |
* Rain latest hour (hover to see other rain measurements)
** Current wind speed in m/s (hover to see current wind gust speed)